JST599 YSSY-YBBN

Flight info

Callsign JST599
Flight time 1h 16m
Altitude 37000
Route TESAT H252 OLSEM Y193 BANDA H252 BN
Aircraft A321/M-SDE3FGHIRWY/LB1

Departure

Time 2026-05-06 20:40
Airport Sydney Kingsford Smith International Airport (YSSY)

Arrival

Time 2026-05-06 21:56
Airport Brisbane International Airport (YBBN)
Time Latitude Longitude Altitude Speed Heading
2026-05-06 20:14 -33.93676 151.17989 29 ft 0 kts 278°
2026-05-06 20:28 -33.93679 151.18012 29 ft 3 kts 278°
2026-05-06 20:28 -33.93682 151.18037 30 ft 3 kts 278°
2026-05-06 20:28 -33.93686 151.18063 31 ft 3 kts 264°
2026-05-06 20:29 -33.93674 151.18083 29 ft 3 kts 175°
2026-05-06 20:29 -33.93670 151.18083 30 ft 0 kts 160°
2026-05-06 20:31 -33.93671 151.18083 30 ft 0 kts 160°
2026-05-06 20:31 -33.93682 151.18085 31 ft 5 kts 178°
2026-05-06 20:31 -33.93759 151.18070 29 ft 14 kts 205°
2026-05-06 20:31 -33.93796 151.17959 29 ft 16 kts 255°
2026-05-06 20:32 -33.93834 151.17810 22 ft 22 kts 252°
2026-05-06 20:32 -33.93874 151.17647 19 ft 15 kts 255°
2026-05-06 20:32 -33.93903 151.17516 19 ft 17 kts 255°
2026-05-06 20:32 -33.93924 151.17423 18 ft 12 kts 254°
2026-05-06 20:33 -33.93949 151.17318 18 ft 14 kts 254°
2026-05-06 20:33 -33.93999 151.17231 20 ft 13 kts 187°
2026-05-06 20:33 -33.94087 151.17252 22 ft 13 kts 168°
2026-05-06 20:33 -33.94182 151.17276 23 ft 15 kts 168°
2026-05-06 20:34 -33.94286 151.17303 24 ft 16 kts 167°
2026-05-06 20:34 -33.94391 151.17331 26 ft 16 kts 167°
2026-05-06 20:34 -33.94502 151.17361 26 ft 17 kts 167°
2026-05-06 20:34 -33.94625 151.17393 26 ft 19 kts 167°
2026-05-06 20:35 -33.94761 151.17430 24 ft 22 kts 167°
2026-05-06 20:35 -33.94922 151.17471 22 ft 25 kts 168°
2026-05-06 20:35 -33.95072 151.17510 20 ft 22 kts 168°
2026-05-06 20:35 -33.95212 151.17546 18 ft 21 kts 168°
2026-05-06 20:36 -33.95360 151.17582 19 ft 22 kts 167°
2026-05-06 20:36 -33.95509 151.17621 21 ft 22 kts 167°
2026-05-06 20:36 -33.95659 151.17661 24 ft 22 kts 167°
2026-05-06 20:36 -33.95812 151.17700 24 ft 24 kts 167°
2026-05-06 20:37 -33.95953 151.17738 24 ft 16 kts 167°
2026-05-06 20:37 -33.96064 151.17768 26 ft 17 kts 167°
2026-05-06 20:37 -33.96184 151.17799 24 ft 19 kts 168°
2026-05-06 20:37 -33.96321 151.17833 23 ft 21 kts 168°
2026-05-06 20:38 -33.96432 151.17883 24 ft 13 kts 129°
2026-05-06 20:38 -33.96439 151.17939 24 ft 2 kts 81°
2026-05-06 20:38 -33.96433 151.17979 24 ft 8 kts 79°
2026-05-06 20:38 -33.96401 151.18044 24 ft 10 kts 31°
2026-05-06 20:39 -33.96321 151.18037 24 ft 15 kts 348°
2026-05-06 20:39 -33.95968 151.17945 21 ft 92 kts 348°
2026-05-06 20:39 -33.95105 151.17720 20 ft 158 kts 347°
2026-05-06 20:39 -33.93888 151.17415 259 ft 185 kts 345°
2026-05-06 20:40 -33.92663 151.17102 1124 ft 177 kts 343°
2026-05-06 20:40 -33.91440 151.16929 1916 ft 186 kts 360°
2026-05-06 20:40 -33.90223 151.17736 2230 ft 223 kts 45°
2026-05-06 20:40 -33.89654 151.19560 2407 ft 247 kts 90°
2026-05-06 20:41 -33.90181 151.21488 2746 ft 244 kts 134°
2026-05-06 20:41 -33.91555 151.22608 2927 ft 244 kts 174°
2026-05-06 20:41 -33.92675 151.22640 3125 ft 244 kts 201°
2026-05-06 20:41 -33.94321 151.21056 4217 ft 233 kts 245°
2026-05-06 20:42 -33.94552 151.19131 4975 ft 243 kts 280°
2026-05-06 20:42 -33.93698 151.17333 5700 ft 259 kts 316°
2026-05-06 20:42 -33.92030 151.16429 6498 ft 274 kts 351°
2026-05-06 20:42 -33.90755 151.16539 7038 ft 283 kts 13°
2026-05-06 20:43 -33.89062 151.17779 7866 ft 295 kts 45°
2026-05-06 20:43 -33.88114 151.19989 8678 ft 305 kts 77°
2026-05-06 20:43 -33.88224 151.22541 9463 ft 312 kts 109°
2026-05-06 20:43 -33.89063 151.24972 10207 ft 318 kts 110°
2026-05-06 20:44 -33.89404 151.27661 10494 ft 337 kts 82°
2026-05-06 20:44 -33.88641 151.30366 10684 ft 351 kts 53°
2026-05-06 20:44 -33.86934 151.32509 10962 ft 360 kts 33°
2026-05-06 20:44 -33.84919 151.34353 11561 ft 367 kts 32°
2026-05-06 20:45 -33.82864 151.36222 12249 ft 372 kts 32°
2026-05-06 20:45 -33.80785 151.38108 12953 ft 377 kts 32°
2026-05-06 20:45 -33.78788 151.40215 13651 ft 387 kts 39°
2026-05-06 20:45 -33.76933 151.42610 14290 ft 394 kts 44°
2026-05-06 20:46 -33.75177 151.45174 14945 ft 399 kts 46°
2026-05-06 20:46 -33.73458 151.47819 15610 ft 403 kts 47°
2026-05-06 20:47 -33.68036 151.55951 17583 ft 414 kts 45°
2026-05-06 20:47 -33.65851 151.59009 18333 ft 415 kts 40°
2026-05-06 20:47 -33.63707 151.61311 18888 ft 412 kts 31°
2026-05-06 20:47 -33.61341 151.63217 19478 ft 411 kts 26°
2026-05-06 20:48 -33.58930 151.65082 20103 ft 412 kts 26°
2026-05-06 20:48 -33.56519 151.66969 20718 ft 414 kts 26°
2026-05-06 20:48 -33.54098 151.68874 21264 ft 417 kts 26°
2026-05-06 20:48 -33.51662 151.70790 21791 ft 420 kts 25°
2026-05-06 20:49 -33.49102 151.72428 22311 ft 415 kts 16°
2026-05-06 20:49 -33.46397 151.73560 22840 ft 410 kts
2026-05-06 20:49 -33.43636 151.74445 23365 ft 412 kts
2026-05-06 20:49 -33.40860 151.75334 23849 ft 414 kts
2026-05-06 20:50 -33.38061 151.76234 24277 ft 417 kts
2026-05-06 20:50 -33.35251 151.77143 24704 ft 419 kts
2026-05-06 20:50 -33.32462 151.78045 25089 ft 422 kts
2026-05-06 20:50 -33.29622 151.78961 25485 ft 424 kts
2026-05-06 20:51 -33.26761 151.79882 25892 ft 427 kts
2026-05-06 20:51 -33.23883 151.80812 26304 ft 429 kts
2026-05-06 20:51 -33.20994 151.81744 26699 ft 431 kts
2026-05-06 20:51 -33.18086 151.82681 27093 ft 433 kts
2026-05-06 20:52 -33.15165 151.83620 27477 ft 436 kts
2026-05-06 20:52 -33.12225 151.84564 27849 ft 438 kts
2026-05-06 20:52 -33.09276 151.85512 28185 ft 441 kts
2026-05-06 20:52 -33.06304 151.86470 28558 ft 443 kts
2026-05-06 20:53 -33.03317 151.87430 28911 ft 446 kts
2026-05-06 20:53 -33.00349 151.88383 29293 ft 448 kts
2026-05-06 20:53 -32.97336 151.89353 29737 ft 448 kts
2026-05-06 20:53 -32.94329 151.90322 30237 ft 446 kts
2026-05-06 20:54 -32.91340 151.91281 30677 ft 445 kts
2026-05-06 20:54 -32.88348 151.92236 31068 ft 444 kts
2026-05-06 20:54 -32.85357 151.93188 31461 ft 444 kts
2026-05-06 20:54 -32.82375 151.94138 31844 ft 443 kts
2026-05-06 20:55 -32.79390 151.95089 32247 ft 443 kts
2026-05-06 20:55 -32.76414 151.96040 32657 ft 442 kts
2026-05-06 20:55 -32.73444 151.96990 33053 ft 442 kts
2026-05-06 20:55 -32.70466 151.97938 33453 ft 441 kts
2026-05-06 20:56 -32.67543 151.98871 33839 ft 441 kts
2026-05-06 20:56 -32.64575 151.99816 34205 ft 441 kts
2026-05-06 20:56 -32.61617 152.00758 34539 ft 440 kts
2026-05-06 20:56 -32.58655 152.01700 34871 ft 440 kts
2026-05-06 20:57 -32.55697 152.02639 35201 ft 439 kts
2026-05-06 20:57 -32.52742 152.03575 35534 ft 439 kts
2026-05-06 20:57 -32.49786 152.04515 35846 ft 439 kts
2026-05-06 20:57 -32.46836 152.05453 36170 ft 438 kts
2026-05-06 20:58 -32.44887 152.06072 36353 ft 438 kts
2026-05-06 20:58 -32.41938 152.07006 36580 ft 438 kts
2026-05-06 20:58 -32.38989 152.07936 36875 ft 438 kts
2026-05-06 20:58 -32.36039 152.08866 37030 ft 439 kts
2026-05-06 20:59 -32.32130 152.10097 37051 ft 438 kts
2026-05-06 20:59 -32.27224 152.11642 37052 ft 438 kts
2026-05-06 21:00 -32.21325 152.13497 37047 ft 439 kts
2026-05-06 21:00 -32.15412 152.15368 37060 ft 439 kts
2026-05-06 21:01 -32.09504 152.17232 37058 ft 440 kts
2026-05-06 21:01 -32.03581 152.19079 37060 ft 440 kts
2026-05-06 21:02 -31.97654 152.20932 37041 ft 440 kts
2026-05-06 21:02 -31.91763 152.22786 37057 ft 441 kts
2026-05-06 21:03 -31.85829 152.24642 37061 ft 441 kts
2026-05-06 21:03 -31.79887 152.26493 37077 ft 442 kts
2026-05-06 21:04 -31.73936 152.28353 37054 ft 442 kts
2026-05-06 21:04 -31.67986 152.30203 37063 ft 443 kts
2026-05-06 21:05 -31.62031 152.32049 37069 ft 442 kts
2026-05-06 21:05 -31.56112 152.33888 37077 ft 443 kts
2026-05-06 21:06 -31.50141 152.35742 37081 ft 443 kts
2026-05-06 21:06 -31.44179 152.37582 37098 ft 443 kts
2026-05-06 21:07 -31.38217 152.39422 37097 ft 443 kts
2026-05-06 21:07 -31.32255 152.41276 37062 ft 443 kts
2026-05-06 21:08 -31.26286 152.43120 37087 ft 443 kts
2026-05-06 21:08 -31.20335 152.44950 37095 ft 442 kts
2026-05-06 21:09 -31.14420 152.46766 37089 ft 441 kts
2026-05-06 21:09 -31.08478 152.48598 37043 ft 441 kts
2026-05-06 21:10 -31.02537 152.50420 37074 ft 441 kts
2026-05-06 21:10 -30.96605 152.52236 37093 ft 440 kts
2026-05-06 21:11 -30.90712 152.54042 37099 ft 440 kts
2026-05-06 21:11 -30.84790 152.55847 37062 ft 440 kts
2026-05-06 21:12 -30.78865 152.57668 37083 ft 441 kts
2026-05-06 21:12 -30.72962 152.59734 37083 ft 445 kts
2026-05-06 21:13 -30.67058 152.61963 37100 ft 446 kts
2026-05-06 21:13 -30.61148 152.64165 37053 ft 446 kts
2026-05-06 21:14 -30.55238 152.66311 37072 ft 444 kts
2026-05-06 21:14 -30.49367 152.68418 37087 ft 444 kts
2026-05-06 21:15 -30.43452 152.70542 37092 ft 444 kts
2026-05-06 21:15 -30.37553 152.72673 37096 ft 444 kts
2026-05-06 21:16 -30.31640 152.74805 37092 ft 444 kts
2026-05-06 21:16 -30.25735 152.76933 37084 ft 444 kts
2026-05-06 21:17 -30.19869 152.79037 37089 ft 444 kts
2026-05-06 21:17 -30.13955 152.81154 37058 ft 445 kts
2026-05-06 21:18 -30.08036 152.83274 37062 ft 444 kts
2026-05-06 21:18 -30.02127 152.85387 37081 ft 444 kts
2026-05-06 21:19 -29.96218 152.87496 37093 ft 444 kts
2026-05-06 21:19 -29.90306 152.89610 37055 ft 444 kts
2026-05-06 21:20 -29.84433 152.91711 37074 ft 444 kts
2026-05-06 21:20 -29.78518 152.93811 37084 ft 444 kts
2026-05-06 21:21 -29.72606 152.95904 37090 ft 444 kts
2026-05-06 21:21 -29.66696 152.98011 37050 ft 444 kts
2026-05-06 21:22 -29.60829 153.00094 37072 ft 444 kts
2026-05-06 21:22 -29.54922 153.02185 37077 ft 444 kts
2026-05-06 21:23 -29.49024 153.04276 37081 ft 444 kts
2026-05-06 21:23 -29.43123 153.06364 37047 ft 443 kts
2026-05-06 21:24 -29.37221 153.08443 37077 ft 443 kts
2026-05-06 21:24 -29.31330 153.10524 37080 ft 443 kts
2026-05-06 21:25 -29.25434 153.12602 37090 ft 443 kts
2026-05-06 21:25 -29.19533 153.14672 37043 ft 443 kts
2026-05-06 21:26 -29.13638 153.16739 37080 ft 443 kts
2026-05-06 21:26 -29.07748 153.18808 37090 ft 443 kts
2026-05-06 21:27 -29.01855 153.20879 37101 ft 443 kts
2026-05-06 21:27 -28.95964 153.22945 37062 ft 443 kts
2026-05-06 21:28 -28.90071 153.25002 37089 ft 442 kts
2026-05-06 21:28 -28.84186 153.27059 37099 ft 442 kts
2026-05-06 21:29 -28.78333 153.29107 37106 ft 442 kts
2026-05-06 21:29 -28.72448 153.31159 37108 ft 442 kts
2026-05-06 21:30 -28.66564 153.33209 37081 ft 442 kts
2026-05-06 21:30 -28.60681 153.35249 37094 ft 442 kts
2026-05-06 21:31 -28.54791 153.37299 37098 ft 443 kts
2026-05-06 21:31 -28.48895 153.39343 37096 ft 443 kts
2026-05-06 21:31 -28.45941 153.40369 36987 ft 443 kts
2026-05-06 21:32 -28.43003 153.41390 35773 ft 441 kts
2026-05-06 21:32 -28.37004 153.43440 32255 ft 456 kts
2026-05-06 21:32 -28.34004 153.44467 30487 ft 457 kts
2026-05-06 21:33 -28.30958 153.45519 28604 ft 457 kts
2026-05-06 21:33 -28.27965 153.46572 27742 ft 437 kts
2026-05-06 21:33 -28.25173 153.47582 27373 ft 411 kts
2026-05-06 21:33 -28.22407 153.48549 26735 ft 420 kts
2026-05-06 21:34 -28.19588 153.49188 26090 ft 407 kts 356°
2026-05-06 21:34 -28.16802 153.49302 25462 ft 394 kts 348°
2026-05-06 21:34 -28.14118 153.48952 24848 ft 383 kts 340°
2026-05-06 21:34 -28.11575 153.48177 24256 ft 374 kts 333°
2026-05-06 21:35 -28.09139 153.47159 23669 ft 373 kts 333°
2026-05-06 21:35 -28.06707 153.46148 23012 ft 372 kts 333°
2026-05-06 21:35 -28.04287 153.45146 22424 ft 369 kts 334°
2026-05-06 21:35 -28.01909 153.44161 21842 ft 368 kts 334°
2026-05-06 21:36 -27.99505 153.43161 21269 ft 367 kts 334°
2026-05-06 21:36 -27.97116 153.42163 20701 ft 366 kts 334°
2026-05-06 21:36 -27.94731 153.41166 20145 ft 365 kts 334°
2026-05-06 21:36 -27.92350 153.40173 19609 ft 363 kts 335°
2026-05-06 21:37 -27.89983 153.39186 19076 ft 362 kts 335°
2026-05-06 21:37 -27.87630 153.38204 18574 ft 359 kts 335°
2026-05-06 21:37 -27.85286 153.37227 18031 ft 357 kts 335°
2026-05-06 21:37 -27.82967 153.36265 17527 ft 353 kts 336°
2026-05-06 21:38 -27.80667 153.35313 17030 ft 351 kts 336°
2026-05-06 21:38 -27.78379 153.34363 16527 ft 349 kts 336°
2026-05-06 21:38 -27.76111 153.33418 16027 ft 347 kts 335°
2026-05-06 21:38 -27.73883 153.32412 15482 ft 344 kts 333°
2026-05-06 21:39 -27.71699 153.31345 14948 ft 341 kts 333°
2026-05-06 21:39 -27.69539 153.30253 14403 ft 339 kts 332°
2026-05-06 21:39 -27.67394 153.29157 13839 ft 338 kts 332°
2026-05-06 21:39 -27.65250 153.28067 13230 ft 336 kts 333°
2026-05-06 21:40 -27.63118 153.26994 12674 ft 334 kts 333°
2026-05-06 21:40 -27.60995 153.25935 12116 ft 333 kts 334°
2026-05-06 21:40 -27.58908 153.24904 11568 ft 331 kts 334°
2026-05-06 21:40 -27.56799 153.23865 11032 ft 330 kts 334°
2026-05-06 21:41 -27.54740 153.22850 10877 ft 316 kts 334°
2026-05-06 21:41 -27.52768 153.21882 10755 ft 303 kts 334°
2026-05-06 21:41 -27.50871 153.20952 10632 ft 292 kts 334°
2026-05-06 21:41 -27.49032 153.20052 10388 ft 285 kts 334°
2026-05-06 21:42 -27.47222 153.19162 10150 ft 283 kts 334°
2026-05-06 21:42 -27.45422 153.18272 9944 ft 281 kts 334°
2026-05-06 21:42 -27.43630 153.17382 9815 ft 282 kts 334°
2026-05-06 21:42 -27.41830 153.16491 9674 ft 282 kts 334°
2026-05-06 21:43 -27.40031 153.15603 9355 ft 285 kts 334°
2026-05-06 21:43 -27.38163 153.14845 9114 ft 286 kts 345°
2026-05-06 21:43 -27.36167 153.14708 8925 ft 290 kts
2026-05-06 21:43 -27.34226 153.15287 8699 ft 290 kts 21°
2026-05-06 21:44 -27.32426 153.16298 8259 ft 286 kts 25°
2026-05-06 21:44 -27.31250 153.16970 7722 ft 286 kts 25°
2026-05-06 21:44 -27.29477 153.17983 6915 ft 285 kts 25°
2026-05-06 21:44 -27.27702 153.18997 5841 ft 291 kts 26°
2026-05-06 21:45 -27.25862 153.20047 4774 ft 297 kts 26°
2026-05-06 21:45 -27.24097 153.21057 4549 ft 269 kts 26°
2026-05-06 21:45 -27.22517 153.21962 4493 ft 241 kts 25°
2026-05-06 21:45 -27.21067 153.22791 4434 ft 230 kts 25°
2026-05-06 21:46 -27.19639 153.23605 4383 ft 229 kts 25°
2026-05-06 21:46 -27.18216 153.24414 4335 ft 229 kts 25°
2026-05-06 21:46 -27.16795 153.25223 4294 ft 230 kts 25°
2026-05-06 21:46 -27.15373 153.26031 4244 ft 228 kts 25°
2026-05-06 21:47 -27.13958 153.26838 4193 ft 228 kts 25°
2026-05-06 21:47 -27.12563 153.27633 4145 ft 227 kts 25°
2026-05-06 21:47 -27.11126 153.28351 4097 ft 226 kts
2026-05-06 21:47 -27.09626 153.28131 4053 ft 216 kts 327°
2026-05-06 21:48 -27.08719 153.26922 4008 ft 202 kts 287°
2026-05-06 21:48 -27.08715 153.25385 3964 ft 200 kts 249°
2026-05-06 21:48 -27.09556 153.24184 4015 ft 201 kts 212°
2026-05-06 21:48 -27.10899 153.23803 4027 ft 204 kts 180°
2026-05-06 21:49 -27.12329 153.23882 4027 ft 207 kts 178°
2026-05-06 21:49 -27.13765 153.23969 4024 ft 207 kts 178°
2026-05-06 21:49 -27.15194 153.24057 4035 ft 200 kts 178°
2026-05-06 21:49 -27.16509 153.24137 4030 ft 177 kts 179°
2026-05-06 21:50 -27.17662 153.24206 4024 ft 161 kts 179°
2026-05-06 21:50 -27.18721 153.24091 3940 ft 148 kts 200°
2026-05-06 21:50 -27.19634 153.23602 3811 ft 144 kts 209°
2026-05-06 21:50 -27.20523 153.23096 3638 ft 143 kts 209°
2026-05-06 21:51 -27.21408 153.22593 3460 ft 142 kts 209°
2026-05-06 21:51 -27.22290 153.22090 3280 ft 142 kts 209°
2026-05-06 21:51 -27.23169 153.21589 3090 ft 141 kts 208°
2026-05-06 21:51 -27.24046 153.21090 2899 ft 141 kts 209°
2026-05-06 21:52 -27.24922 153.20591 2719 ft 141 kts 208°
2026-05-06 21:52 -27.25795 153.20093 2531 ft 141 kts 209°
2026-05-06 21:52 -27.26669 153.19595 2348 ft 141 kts 208°
2026-05-06 21:52 -27.27530 153.19104 2162 ft 140 kts 208°
2026-05-06 21:53 -27.28400 153.18608 1976 ft 140 kts 209°
2026-05-06 21:53 -27.29272 153.18110 1792 ft 141 kts 209°
2026-05-06 21:53 -27.30147 153.17611 1601 ft 140 kts 209°
2026-05-06 21:53 -27.31015 153.17116 1414 ft 139 kts 208°
2026-05-06 21:54 -27.31875 153.16625 1229 ft 138 kts 210°
2026-05-06 21:54 -27.32729 153.16137 1045 ft 138 kts 209°
2026-05-06 21:54 -27.33586 153.15649 878 ft 137 kts 208°
2026-05-06 21:54 -27.34438 153.15175 740 ft 137 kts 207°
2026-05-06 21:55 -27.35279 153.14704 628 ft 134 kts 208°
2026-05-06 21:55 -27.36113 153.14241 453 ft 133 kts 206°
2026-05-06 21:55 -27.36912 153.13756 238 ft 131 kts 207°
2026-05-06 21:55 -27.37736 153.13287 33 ft 131 kts 207°
2026-05-06 21:56 -27.38441 153.12876 21 ft 94 kts 207°
2026-05-06 21:56 -27.38859 153.12631 20 ft 39 kts 211°
2026-05-06 21:56 -27.39021 153.12438 18 ft 27 kts 238°
2026-05-06 21:56 -27.39116 153.12265 19 ft 26 kts 238°
2026-05-06 21:57 -27.39088 153.12141 18 ft 17 kts
2026-05-06 21:57 -27.38974 153.12205 19 ft 19 kts 25°
2026-05-06 21:57 -27.38882 153.12190 18 ft 13 kts 322°
2026-05-06 21:57 -27.38802 153.12183 18 ft 14 kts 29°
2026-05-06 21:58 -27.38705 153.12201 18 ft 15 kts
2026-05-06 21:58 -27.38667 153.12201 18 ft 0 kts 358°